When you browse on this site, cookies collect data to enhance your experience and personalize the content and advertising you see.
Visit our Privacy Policy to learn more. By continuing to use the site, you agree to this use of cookies and data.
  • In Schweiz
  • Länderverzeichnis
  • Für 7 Tage
  • Wassertemperatur
  • Satellitenkarten
  • Wetterkarte
  • Widgets
  • user-avatar
    Anmelden

    Stündliche Wetter Tomashivka

    Heute, 17 Juli, Mittwoch

    Zeit Temperatur Niederschläge Wind Luftdruck Luftfeuchtigkeit
    00:00 +15°C° 0 mm 2 m/S 741 mmHg 81%
    01:00 +15°C° 0 mm 2 m/S 741 mmHg 83%
    02:00 +15°C° 0 mm 2 m/S 741 mmHg 82%
    03:00 +14°C° 0.2 mm 3 m/S 741 mmHg 86%
    04:00 +13°C° 0.2 mm 4 m/S 741 mmHg 90%
    05:00 +13°C° 0.2 mm 4 m/S 741 mmHg 94%
    06:00 +14°C° 0.3 mm 4 m/S 741 mmHg 89%
    07:00 +15°C° 0.3 mm 4 m/S 741 mmHg 84%
    08:00 +17°C° 0.3 mm 4 m/S 741 mmHg 79%
    09:00 +18°C° 0 mm 3 m/S 741 mmHg 73%
    10:00 +19°C° 0 mm 3 m/S 741 mmHg 67%
    11:00 +20°C° 0 mm 3 m/S 741 mmHg 62%
    12:00 +20°C° 0.2 mm 4 m/S 741 mmHg 62%
    13:00 +21°C° 0.2 mm 4 m/S 741 mmHg 62%
    14:00 +21°C° 0.2 mm 4 m/S 740 mmHg 63%
    15:00 +21°C° 0.3 mm 4 m/S 740 mmHg 65%
    16:00 +21°C° 0.3 mm 4 m/S 740 mmHg 68%
    17:00 +20°C° 0.3 mm 4 m/S 740 mmHg 71%
    18:00 +19°C° 0.8 mm 3 m/S 740 mmHg 77%
    19:00 +17°C° 0.8 mm 3 m/S 740 mmHg 83%
    20:00 +16°C° 0.8 mm 3 m/S 740 mmHg 89%
    21:00 +14°C° 0 mm 3 m/S 740 mmHg 91%
    22:00 +13°C° 0 mm 3 m/S 740 mmHg 92%
    23:00 +13°C° 0 mm 2 m/S 740 mmHg 94%

    Morgen, 18 Juli, Donnerstag

    Zeit Temperatur Niederschläge Wind Luftdruck Luftfeuchtigkeit
    00:00 +13°C° 0 mm 2 m/S 741 mmHg 95%
    01:00 +12°C° 0 mm 3 m/S 741 mmHg 95%
    02:00 +11°C° 0 mm 3 m/S 741 mmHg 95%
    03:00 +11°C° 0 mm 3 m/S 741 mmHg 96%
    04:00 +11°C° 0 mm 3 m/S 741 mmHg 97%
    05:00 +11°C° 0 mm 3 m/S 741 mmHg 97%
    06:00 +12°C° 0 mm 3 m/S 741 mmHg 93%
    07:00 +14°C° 0 mm 3 m/S 741 mmHg 89%
    08:00 +15°C° 0 mm 4 m/S 742 mmHg 84%
    09:00 +18°C° 0.1 mm 4 m/S 742 mmHg 78%
    10:00 +19°C° 0.1 mm 5 m/S 742 mmHg 72%
    11:00 +20°C° 0.1 mm 5 m/S 742 mmHg 66%
    12:00 +21°C° 0.1 mm 5 m/S 742 mmHg 64%
    13:00 +21°C° 0.1 mm 5 m/S 742 mmHg 63%
    14:00 +22°C° 0.1 mm 5 m/S 742 mmHg 62%
    15:00 +21°C° 0.1 mm 5 m/S 743 mmHg 64%
    16:00 +21°C° 0.1 mm 5 m/S 743 mmHg 66%
    17:00 +21°C° 0.1 mm 5 m/S 743 mmHg 68%
    18:00 +19°C° 0 mm 4 m/S 743 mmHg 75%
    19:00 +18°C° 0 mm 4 m/S 743 mmHg 82%
    20:00 +16°C° 0 mm 3 m/S 743 mmHg 88%
    21:00 +16°C° 0 mm 3 m/S 744 mmHg 90%
    22:00 +14°C° 0 mm 3 m/S 744 mmHg 92%
    23:00 +14°C° 0 mm 3 m/S 745 mmHg 94%

    übermorgen, 19 Juli, Freitag

    Zeit Temperatur Niederschläge Wind Luftdruck Luftfeuchtigkeit
    00:00 +14°C° 0 mm 3 m/S 745 mmHg 94%
    01:00 +13°C° 0 mm 3 m/S 745 mmHg 95%
    02:00 +13°C° 0 mm 3 m/S 745 mmHg 95%
    03:00 +13°C° 0 mm 3 m/S 745 mmHg 95%
    04:00 +13°C° 0 mm 3 m/S 745 mmHg 95%
    05:00 +13°C° 0 mm 3 m/S 745 mmHg 94%
    06:00 +14°C° 0 mm 3 m/S 746 mmHg 89%
    07:00 +17°C° 0 mm 3 m/S 746 mmHg 83%
    08:00 +19°C° 0 mm 4 m/S 746 mmHg 78%
    09:00 +20°C° 0 mm 4 m/S 746 mmHg 71%
    10:00 +22°C° 0 mm 4 m/S 746 mmHg 65%
    11:00 +23°C° 0 mm 4 m/S 747 mmHg 59%
    12:00 +25°C° 0.1 mm 3 m/S 746 mmHg 57%
    13:00 +25°C° 0.1 mm 3 m/S 746 mmHg 56%
    14:00 +26°C° 0.1 mm 3 m/S 746 mmHg 54%
    15:00 +25°C° 0.5 mm 3 m/S 746 mmHg 58%
    16:00 +25°C° 0.5 mm 3 m/S 746 mmHg 62%
    17:00 +24°C° 0.5 mm 3 m/S 746 mmHg 66%
    18:00 +23°C° 0.1 mm 2 m/S 746 mmHg 70%
    19:00 +21°C° 0.1 mm 1 m/S 747 mmHg 75%
    20:00 +20°C° 0.1 mm 1 m/S 747 mmHg 79%
    21:00 +19°C° 0 mm 1 m/S 747 mmHg 81%
    22:00 +18°C° 0 mm 1 m/S 747 mmHg 83%
    23:00 +17°C° 0 mm 2 m/S 747 mmHg 85%

    20 Juli, Samstag

    Zeit Temperatur Niederschläge Wind Luftdruck Luftfeuchtigkeit
    00:00 +16°C° 0 mm 2 m/S 747 mmHg 87%
    01:00 +16°C° 0 mm 2 m/S 747 mmHg 88%
    02:00 +16°C° 0 mm 2 m/S 747 mmHg 89%
    03:00 +16°C° 0 mm 2 m/S 747 mmHg 89%
    04:00 +15°C° 0 mm 1 m/S 748 mmHg 89%
    05:00 +15°C° 0 mm 1 m/S 748 mmHg 89%
    06:00 +18°C° 0 mm 1 m/S 748 mmHg 83%
    07:00 +20°C° 0 mm 1 m/S 748 mmHg 77%
    08:00 +22°C° 0 mm 1 m/S 748 mmHg 71%
    09:00 +23°C° 0 mm 1 m/S 748 mmHg 66%
    10:00 +25°C° 0 mm 1 m/S 748 mmHg 60%
    11:00 +26°C° 0 mm 1 m/S 749 mmHg 54%
    12:00 +27°C° 0.1 mm 1 m/S 748 mmHg 54%
    13:00 +27°C° 0.1 mm 1 m/S 748 mmHg 53%
    14:00 +27°C° 0.1 mm 1 m/S 748 mmHg 52%
    15:00 +27°C° 0.1 mm 1 m/S 748 mmHg 54%
    16:00 +27°C° 0.1 mm 1 m/S 748 mmHg 55%
    17:00 +27°C° 0.1 mm 1 m/S 748 mmHg 57%
    18:00 +25°C° 0 mm 1 m/S 748 mmHg 62%
    19:00 +23°C° 0 mm 1 m/S 748 mmHg 67%
    20:00 +22°C° 0 mm 1 m/S 748 mmHg 72%
    21:00 +21°C° 0.2 mm 1 m/S 748 mmHg 74%
    22:00 +20°C° 0.2 mm 1 m/S 749 mmHg 77%
    23:00 +19°C° 0.2 mm 1 m/S 749 mmHg 79%

    21 Juli, Sonntag

    Zeit Temperatur Niederschläge Wind Luftdruck Luftfeuchtigkeit
    00:00 +17°C° 0.2 mm 0 m/S 749 mmHg 80%
    01:00 +17°C° 0.2 mm 0 m/S 749 mmHg 82%
    02:00 +16°C° 0.2 mm 0 m/S 749 mmHg 83%
    03:00 +16°C° 0 mm 0 m/S 749 mmHg 83%
    04:00 +18°C° 0 mm 1 m/S 749 mmHg 84%
    05:00 +18°C° 0 mm 1 m/S 749 mmHg 84%
    06:00 +20°C° 0 mm 1 m/S 749 mmHg 79%
    07:00 +22°C° 0 mm 1 m/S 749 mmHg 74%
    08:00 +23°C° 0 mm 2 m/S 749 mmHg 69%
    09:00 +25°C° 0 mm 2 m/S 749 mmHg 63%
    10:00 +26°C° 0 mm 1 m/S 749 mmHg 58%
    11:00 +27°C° 0 mm 1 m/S 749 mmHg 53%
    12:00 +28°C° 0 mm 1 m/S 749 mmHg 50%
    13:00 +28°C° 0 mm 1 m/S 749 mmHg 47%
    14:00 +29°C° 0 mm 1 m/S 749 mmHg 45%
    15:00 +28°C° 0 mm 1 m/S 749 mmHg 46%
    16:00 +28°C° 0 mm 1 m/S 748 mmHg 47%
    17:00 +28°C° 0 mm 1 m/S 748 mmHg 47%
    18:00 +26°C° 0 mm 1 m/S 748 mmHg 53%
    19:00 +24°C° 0 mm 1 m/S 748 mmHg 58%
    20:00 +22°C° 0 mm 1 m/S 748 mmHg 63%
    21:00 +22°C° 0 mm 1 m/S 748 mmHg 65%
    22:00 +21°C° 0 mm 1 m/S 748 mmHg 66%
    23:00 +21°C° 0 mm 1 m/S 748 mmHg 67%

    22 Juli, Montag

    Zeit Temperatur Niederschläge Wind Luftdruck Luftfeuchtigkeit
    00:00 +21°C° 0 mm 1 m/S 748 mmHg 68%
    01:00 +20°C° 0 mm 1 m/S 748 mmHg 70%
    02:00 +20°C° 0 mm 1 m/S 748 mmHg 71%
    03:00 +20°C° 0 mm 1 m/S 748 mmHg 71%
    04:00 +20°C° 0 mm 1 m/S 748 mmHg 72%
    05:00 +20°C° 0 mm 1 m/S 748 mmHg 72%
    06:00 +21°C° 0.1 mm 1 m/S 747 mmHg 74%
    07:00 +21°C° 0.1 mm 1 m/S 747 mmHg 77%
    08:00 +21°C° 0.1 mm 1 m/S 747 mmHg 79%
    09:00 +22°C° 0.1 mm 1 m/S 747 mmHg 76%
    10:00 +23°C° 0.1 mm 2 m/S 747 mmHg 74%
    11:00 +24°C° 0.1 mm 2 m/S 747 mmHg 71%
    12:00 +25°C° 0.3 mm 2 m/S 747 mmHg 69%
    13:00 +26°C° 0.3 mm 2 m/S 747 mmHg 67%
    14:00 +27°C° 0.3 mm 3 m/S 747 mmHg 64%
    15:00 +27°C° 0.3 mm 2 m/S 747 mmHg 65%
    16:00 +27°C° 0.3 mm 2 m/S 747 mmHg 66%
    17:00 +27°C° 0.3 mm 2 m/S 746 mmHg 66%
    18:00 +25°C° 0.1 mm 2 m/S 746 mmHg 72%
    19:00 +24°C° 0.1 mm 2 m/S 746 mmHg 78%
    20:00 +21°C° 0.1 mm 2 m/S 746 mmHg 84%
    21:00 +21°C° 0.4 mm 2 m/S 746 mmHg 86%
    22:00 +20°C° 0.4 mm 2 m/S 746 mmHg 89%
    23:00 +19°C° 0.4 mm 2 m/S 746 mmHg 91%
    Mehr zeigen